Change the Weather History Date:

Wednesday, January 9, 2013

  Actual Average Record
Temperature  
Mean Temperature 41 °F 24 °F  
Max Temperature 53 °F 33 °F 53 °F (2002)
Min Temperature 29 °F 15 °F -16 °F (1977)
Degree Days  
Heating Degree Days 24 41  
Month to date heating degree days 333 369  
Since 1 July heating degree days 2563 2798  
Cooling Degree Days 0 0  
Month to date cooling degree days 0 0  
Year to date cooling degree days 0 0  
Moisture  
Dew Point 26 °F    
Average Humidity 60    
Maximum Humidity 85    
Minimum Humidity 35    
Precipitation  
Precipitation 0.00 in 0.02 in 0.27 in (1985)
Month to date precipitation T 0.19  
Sea Level Pressure  
Sea Level Pressure 30.36 in    
Wind  
Wind Speed 7 mph (WSW)    
Max Wind Speed 13 mph    
Max Gust Speed 15 mph    
Visibility 10 miles    
Events      
T = Trace of Precipitation, MM = Missing Value Source: NWS Daily Summary

Daily Weather History Graph

Daily Weather History Graph

Search for Another Location

Airport or City:

Trip Planner

Search our weather history database for the weather conditions in past years. The results will help you decide how hot, cold, wet, or windy it might be!

Date:

Astronomy

Jan. 09, 2013 Rise Set
Actual Time 7:39 AM CST 5:07 PM CST
Civil Twilight 7:08 AM CST 5:37 PM CST
Nautical Twilight 6:34 AM CST 6:11 PM CST
Astronomical Twilight 6:01 AM CST 6:44 PM CST
Moon 5:19 AM CST (1/9) 3:09 PM CST (1/9)
Length of Visible Light 10h 28m
Length of Day
9h 28m
Waning Crescent, 6% of the Moon is Illuminated
Jan 9
Waning Crescent
Jan 11
New
Jan 18
First Quarter
Jan 26
Full
Feb 3
Last Quarter

Hourly Weather History & Observations

Time (CST) Temp. Windchill Dew Point Humidity Pressure Visibility Wind Dir Wind Speed Gust Speed Precip Events Conditions
12:53 AM 33.1 °F 25.5 °F 27.0 °F 78% 30.17 in 10.0 mi West 9.2 mph - N/A   Clear
1:53 AM 33.1 °F 26.1 °F 27.0 °F 78% 30.19 in 10.0 mi West 8.1 mph - N/A   Clear
2:53 AM 35.1 °F 27.9 °F 28.0 °F 76% 30.22 in 10.0 mi West 9.2 mph - N/A   Clear
3:53 AM 34.0 °F 25.0 °F 28.0 °F 79% 30.25 in 10.0 mi West 12.7 mph - N/A   Clear
4:53 AM 32.0 °F 23.6 °F 27.0 °F 82% 30.28 in 10.0 mi West 10.4 mph - N/A   Clear
5:53 AM 30.9 °F 23.5 °F 26.1 °F 82% 30.29 in 10.0 mi West 8.1 mph - N/A   Clear
6:53 AM 30.9 °F 23.5 °F 26.1 °F 82% 30.31 in 10.0 mi West 8.1 mph - N/A   Clear
7:53 AM 30.9 °F 24.3 °F 26.1 °F 82% 30.34 in 10.0 mi WSW 6.9 mph - N/A   Clear
8:53 AM 33.1 °F 26.9 °F 27.0 °F 78% 30.38 in 10.0 mi West 6.9 mph - N/A   Clear
10:53 AM 42.1 °F 37.7 °F 32.0 °F 67% 30.43 in 10.0 mi WNW 6.9 mph - N/A   Clear
11:53 AM 46.9 °F - 33.1 °F 59% 30.43 in 10.0 mi WNW 8.1 mph - N/A   Clear
12:53 PM 50.0 °F - 32.0 °F 50% 30.41 in 10.0 mi NNW 6.9 mph - N/A   Clear
1:53 PM 53.1 °F - 27.0 °F 37% 30.39 in 10.0 mi NW 6.9 mph - N/A   Clear
2:53 PM 52.0 °F - 28.0 °F 40% 30.40 in 10.0 mi NE 3.5 mph - N/A   Clear
3:53 PM 51.1 °F - 28.0 °F 41% 30.40 in 10.0 mi Calm Calm - N/A   Clear
4:53 PM 48.0 °F - 26.1 °F 42% 30.40 in 10.0 mi East 3.5 mph - N/A   Clear
5:53 PM 44.1 °F 42.5 °F 26.1 °F 49% 30.42 in 10.0 mi ESE 3.5 mph - N/A   Clear
6:53 PM 43.0 °F 40.3 °F 25.0 °F 49% 30.43 in 10.0 mi ESE 4.6 mph - N/A   Clear
7:53 PM 43.0 °F 40.3 °F 23.0 °F 45% 30.42 in 10.0 mi ESE 4.6 mph - N/A   Clear
8:53 PM 41.0 °F 37.1 °F 21.0 °F 45% 30.42 in 10.0 mi SSE 5.8 mph - N/A   Clear
9:53 PM 41.0 °F 35.8 °F 19.9 °F 43% 30.42 in 10.0 mi SSE 8.1 mph - N/A   Clear
10:53 PM 39.0 °F 34.8 °F 19.9 °F 46% 30.42 in 10.0 mi SSE 5.8 mph - N/A   Clear
11:53 PM 37.0 °F 33.3 °F 21.0 °F 52% 30.40 in 10.0 mi SSE 4.6 mph - N/A   Clear